FW6120 Weather Reports


time (UTC)temp
F
wind
direction
speed
knots
gust
knots
rain 1hr
in
rain 24hr
in
rain mn
in
humidity
%
barometer
mb
20260507095338 51 288 0.0 0.9 0.00 0.00 0.00 85 1021.4
20260507094859 51 290 0.0 0.0 0.00 0.00 0.00 85 1021.6
20260507094649 51 290 0.0 0.9 0.00 0.00 0.00 85 1021.4
20260507093837 51 291 0.0 0.9 0.00 0.00 0.00 85 1021.8
20260507093337 51 290 0.0 0.9 0.00 0.00 0.00 84 1021.6
20260507092837 51 291 0.0 0.9 0.00 0.00 0.00 84 1021.7
20260507092351 51 291 0.9 0.9 0.00 0.00 0.00 84 1021.7
20260507091855 52 290 0.0 1.7 0.00 0.00 0.00 84 1021.7
20260507091337 52 291 0.9 1.7 0.00 0.00 0.00 85 1021.6
20260507090837 52 290 0.0 0.9 0.00 0.00 0.00 84 1021.7
20260507090337 52 291 0.0 0.9 0.00 0.00 0.00 84 1021.8
20260507085837 52 291 0.0 0.9 0.00 0.00 0.00 84 1021.6
20260507085337 52 290 0.0 0.9 0.00 0.00 0.00 84 1021.8
20260507084838 52 291 0.0 0.9 0.00 0.00 0.00 84 1021.7
20260507084339 52 291 0.9 0.9 0.00 0.00 0.00 84 1021.7
20260507083838 52 291 0.0 0.0 0.00 0.00 0.00 84 1021.7
20260507083337 52 290 0.0 0.9 0.00 0.00 0.00 84 1021.8
20260507082838 52 290 0.0 0.9 0.00 0.00 0.00 84 1021.5
20260507082651 52 291 0.0 1.7 0.00 0.00 0.00 83 1021.7
20260507081837 52 291 0.0 1.7 0.00 0.00 0.00 83 1021.7
20260507081332 52 291 0.9 0.9 0.00 0.00 0.00 84 1021.9
20260507080835 52 290 0.0 0.9 0.00 0.00 0.00 83 1021.7
20260507080332 52 290 0.9 0.9 0.00 0.00 0.00 83 1021.7
20260507075837 52 291 0.0 2.6 0.00 0.00 0.00 83 1021.5
20260507075333 52 291 0.0 2.6 0.00 0.00 0.00 84 1021.6
20260507074825 52 290 0.9 1.7 0.00 0.00 0.00 83 1021.6
20260507074323 52 290 0.9 1.7 0.00 0.00 0.00 83 1021.7
20260507073824 52 290 0.9 1.7 0.00 0.00 0.00 83 1021.7
20260507073324 52 289 0.0 0.9 0.00 0.00 0.00 83 1021.7
20260507072822 52 290 0.0 1.7 0.00 0.00 0.00 82 1021.7
20260507072322 52 291 1.7 1.7 0.00 0.00 0.00 82 1021.7
20260507071823 52 287 0.9 1.7 0.00 0.00 0.00 82 1021.6
20260507071322 53 271 0.9 1.7 0.00 0.00 0.00 82 1021.7
20260507070823 53 271 0.9 1.7 0.00 0.00 0.00 82 1021.6
20260507070323 53 258 0.0 0.9 0.00 0.00 0.00 82 1021.8
20260507065822 53 258 0.0 2.6 0.00 0.00 0.00 83 1021.7
20260507065322 53 257 0.0 2.6 0.00 0.00 0.00 83 1021.7
20260507064823 53 263 1.7 2.6 0.00 0.00 0.00 83 1021.6
20260507064322 53 271 0.0 1.7 0.00 0.00 0.00 83 1021.6
20260507064134 53 271 0.0 0.9 0.00 0.00 0.00 82 1021.6
20260507063322 53 271 0.0 1.7 0.00 0.00 0.00 82 1021.8
20260507062918 53 271 0.9 1.7 0.00 0.00 0.00 82 1021.7
20260507061825 53 271 0.0 0.9 0.00 0.00 0.00 81 1021.7
20260507061323 53 271 0.0 0.9 0.00 0.00 0.00 81 1021.5
20260507060822 53 271 0.0 2.6 0.00 0.00 0.00 81 1021.7
20260507060322 53 312 0.0 2.6 0.00 0.00 0.00 81 1021.5
20260507060155 53 268 0.9 2.6 0.00 0.00 0.00 81 1021.7
20260507055644 53 267 0.0 5.2 0.00 0.00 0.00 81 1021.7
20260507054822 53 280 1.7 5.2 0.00 0.00 0.00 80 1021.6
20260507054718 53 287 2.6 3.5 0.00 0.00 0.00 80 1021.8
20260507053823 54 291 1.7 3.5 0.00 0.00 0.00 80 1021.7
20260507053326 54 329 2.6 3.5 0.00 0.00 0.00 80 1021.7
20260507052821 54 253 0.0 3.5 0.00 0.00 0.00 80 1021.7
20260507052325 54 230 0.9 1.7 0.00 0.00 0.00 79 1021.8
20260507051824 54 326 0.0 1.7 0.00 0.00 0.00 79 1021.8
20260507051322 54 225 0.0 1.7 0.00 0.00 0.00 79 1021.8
20260507051141 54 225 0.0 1.7 0.00 0.00 0.00 79 1021.6
20260507050320 54 236 0.9 1.7 0.00 0.00 0.00 79 1021.8
20260507045824 54 311 0.0 0.9 0.00 0.00 0.00 78 1021.7
20260507045322 54 311 0.0 1.7 0.00 0.00 0.00 79 1021.8
20260507044826 55 311 0.0 2.6 0.00 0.00 0.00 78 1021.8
20260507044730 55 311 0.0 5.2 0.00 0.00 0.00 78 1021.8
20260507044131 55 275 0.0 5.2 0.00 0.00 0.00 79 1021.9
20260507043322 55 303 0.9 2.6 0.00 0.00 0.00 79 1022.0
20260507042824 55 304 0.9 2.6 0.00 0.00 0.00 79 1021.8
20260507042322 55 304 0.9 2.6 0.00 0.00 0.00 78 1021.9
20260507041823 55 305 0.9 2.6 0.00 0.00 0.00 78 1021.7
20260507041322 55 303 0.9 2.6 0.00 0.00 0.00 78 1021.9
20260507040838 55 290 0.0 6.1 0.00 0.00 0.00 77 1021.6
20260507040830 55 329 0.9 3.5 0.00 0.00 0.00 78 1021.7
20260507035322 55 302 0.0 3.5 0.00 0.00 0.00 78 1021.7
20260507034811 56 319 1.7 3.5 0.00 0.00 0.00 77 1021.5
20260507034309 56 345 0.9 6.1 0.00 0.00 0.00 77 1021.6
20260507033810 56 354 0.9 7.0 0.00 0.00 0.00 77 1021.4
20260507033310 56 348 0.9 7.0 0.00 0.00 0.00 77 1021.7
20260507032811 56 325 0.9 7.0 0.00 0.00 0.00 77 1021.3
20260507032311 56 335 1.7 5.2 0.00 0.00 0.00 77 1021.3
20260507031810 57 356 1.7 5.2 0.00 0.00 0.00 77 1021.2
20260507031310 57 291 1.7 3.5 0.00 0.00 0.00 77 1021.1
20260507030810 57 341 2.6 5.2 0.00 0.00 0.00 77 1021.2
20260507030315 57 342 1.7 8.7 0.00 0.00 0.00 77 1021.0
20260507025917 57 292 1.7 8.7 0.00 0.00 0.00 77 1021.1
20260507024810 58 250 3.5 8.7 0.00 0.00 0.00 76 1020.7
20260507024331 58 259 2.6 7.8 0.00 0.00 0.00 76 1020.9
20260507024123 58 297 2.6 6.1 0.00 0.00 0.00 76 1020.9
20260507023310 59 319 1.7 6.1 0.00 0.00 0.00 75 1020.8
20260507022810 59 326 1.7 5.2 0.00 0.00 0.00 75 1020.6
20260507022311 59 269 2.6 5.2 0.00 0.00 0.00 74 1020.8
20260507021810 60 270 0.0 5.2 0.00 0.00 0.00 74 1020.7
20260507021638 60 313 0.9 6.1 0.00 0.00 0.00 74 1020.8
20260507020811 60 329 2.6 6.1 0.00 0.00 0.00 72 1020.7
20260507020314 60 18 2.6 7.8 0.00 0.00 0.00 72 1020.8
20260507015811 61 327 5.2 6.1 0.00 0.00 0.00 71 1020.9
20260507015311 61 335 1.7 5.2 0.00 0.00 0.00 71 1020.8
20260507014810 62 267 0.9 5.2 0.00 0.00 0.00 70 1020.7
20260507014310 62 326 0.9 5.2 0.00 0.00 0.00 71 1020.7
20260507013810 62 285 0.9 7.0 0.00 0.00 0.00 71 1020.8
20260507013310 62 274 2.6 8.7 0.00 0.00 0.00 71 1021.0
20260507012813 61 271 2.6 8.7 0.00 0.00 0.00 71 1020.9
20260507012310 61 335 4.3 11.3 0.00 0.00 0.00 72 1020.8
20260507011812 61 293 3.5 11.3 0.00 0.00 0.00 73 1021.0
20260507011310 61 269 6.1 7.8 0.00 0.00 0.00 71 1021.1
20260507010811 61 286 5.2 9.6 0.00 0.00 0.00 72 1020.9
20260507010310 61 284 1.7 12.2 0.00 0.00 0.00 72 1021.0
20260507010150 62 277 6.1 12.2 0.00 0.00 0.00 70 1020.8
20260507005626 62 266 6.1 11.3 0.00 0.00 0.00 69 1020.9
20260507004810 63 327 0.9 11.3 0.00 0.00 0.00 70 1020.8
20260507004619 63 293 1.7 9.6 0.00 0.00 0.00 69 1020.8
20260507003810 63 265 4.3 9.6 0.00 0.00 0.00 68 1021.0
20260507003624 65 279 4.3 7.8 0.00 0.00 0.00 65 1020.6
20260507002810 65 301 1.7 8.7 0.00 0.00 0.00 67 1020.8
20260507002309 65 346 3.5 8.7 0.00 0.00 0.00 67 1020.6
20260507001809 65 281 1.7 7.8 0.00 0.00 0.00 65 1020.7
20260507001310 64 303 1.7 7.8 0.00 0.00 0.00 69 1020.6
20260507000810 64 271 0.0 8.7 0.00 0.00 0.00 67 1020.7
20260507000310 64 326 3.5 8.7 0.00 0.00 0.00 66 1020.7
20260506235811 65 282 3.5 8.7 0.00 0.00 0.00 66 1020.6
20260506235310 65 281 3.5 8.7 0.00 0.00 0.00 63 1020.6
20260506234811 66 296 2.6 7.0 0.00 0.00 0.00 62 1020.6
20260506234316 66 336 2.6 9.6 0.00 0.00 0.00 64 1020.7
20260506234234 65 262 0.9 9.6 0.00 0.00 0.00 65 1020.6
20260506233324 65 225 0.0 5.2 0.00 0.00 0.00 66 1020.7
20260506232813 65 214 0.0 5.2 0.00 0.00 0.00 64 1020.6
20260506232323 64 215 0.9 7.0 0.00 0.00 0.00 64 1020.7
20260506232204 65 235 2.6 7.8 0.00 0.00 0.00 64 1020.8
20260506231310 66 281 4.3 7.8 0.00 0.00 0.00 64 1020.8
20260506230834 66 225 1.7 2.6 0.00 0.00 0.00 66 1020.7
20260506230706 65 231 0.0 5.2 0.00 0.00 0.00 66 1020.7
20260506225811 65 231 0.9 7.0 0.00 0.00 0.00 67 1020.9
20260506225316 64 241 2.6 7.8 0.00 0.00 0.00 66 1020.8
20260506224810 65 216 4.3 7.8 0.00 0.00 0.00 67 1020.8
20260506224655 65 273 0.0 11.3 0.00 0.00 0.00 69 1020.9
20260506223821 64 228 3.5 11.3 0.00 0.00 0.00 69 1020.8
20260506223311 64 195 3.5 6.1 0.00 0.00 0.00 66 1021.1
20260506222812 64 327 2.6 6.1 0.00 0.00 0.00 67 1021.0
20260506222313 63 337 0.9 7.8 0.00 0.00 0.00 70 1021.3
20260506221810 63 264 0.9 7.8 0.00 0.00 0.00 67 1021.1
20260506221707 63 229 1.7 5.2 0.00 0.00 0.00 69 1021.1
20260506220811 63 285 0.9 11.3 0.00 0.00 0.00 68 1021.2
20260506220329 63 144 0.0 5.2 0.00 0.00 0.00 70 1021.1
20260506220317 63 236 2.6 11.3 0.00 0.00 0.00 69 1021.3
20260506220245 63 239 2.6 7.8 0.00 0.00 0.00 70 1021.3
20260506214454 63 264 1.7 8.7 0.00 0.00 0.00 71 1021.3
20260506213313 62 236 1.7 7.0 0.00 0.00 0.00 76 1021.7
20260506212811 62 243 2.6 7.0 0.00 0.00 0.00 73 1021.5
20260506212312 62 220 3.5 6.1 0.00 0.00 0.00 73 1021.4
20260506211814 63 216 2.6 6.1 0.00 0.00 0.00 72 1021.4
20260506211311 63 175 4.3 6.1 0.00 0.00 0.00 71 1021.5
20260506210811 62 211 0.9 6.1 0.00 0.00 0.00 74 1021.7
20260506210324 61 205 4.3 5.2 0.00 0.00 0.00 76 1021.8
20260506205814 61 253 0.0 5.2 0.00 0.00 0.00 75 1021.8
20260506205323 61 210 0.9 5.2 0.00 0.00 0.00 75 1021.6
20260506204909 61 293 0.0 5.2 0.00 0.00 0.00 77 1021.7
20260506203811 60 221 3.5 6.1 0.00 0.00 0.00 78 1021.6
20260506203703 61 224 1.7 7.8 0.00 0.00 0.00 76 1021.6
20260506202812 61 247 5.2 7.8 0.00 0.00 0.00 77 1021.8
20260506202310 60 262 2.6 5.2 0.00 0.00 0.00 78 1021.6
20260506201811 60 218 2.6 7.8 0.00 0.00 0.00 79 1021.7
20260506201310 60 222 2.6 7.8 0.00 0.00 0.00 78 1021.5
20260506200810 60 175 2.6 6.1 0.00 0.00 0.00 81 1021.6
20260506200310 60 218 0.9 7.0 0.00 0.00 0.00 78 1021.4
20260506195810 60 261 3.5 7.0 0.00 0.00 0.00 79 1021.4
20260506195310 60 223 3.5 7.0 0.00 0.00 0.00 78 1021.5
20260506194810 60 156 4.3 7.0 0.00 0.00 0.00 79 1021.7
20260506194311 60 177 2.6 5.2 0.00 0.00 0.00 80 1021.7
20260506193810 60 226 1.7 6.1 0.00 0.00 0.00 77 1021.8
20260506193706 60 208 4.3 7.0 0.00 0.00 0.00 80 1021.8
20260506192810 60 218 3.5 7.0 0.00 0.00 0.00 78 1021.8
20260506192310 60 249 4.3 7.0 0.00 0.00 0.00 78 1021.8
20260506191810 59 243 1.7 7.0 0.00 0.00 0.00 79 1021.8
20260506191313 60 253 0.9 7.0 0.00 0.00 0.00 78 1021.9
20260506191141 60 239 1.7 6.1 0.00 0.00 0.00 77 1021.7
20260506190310 60 204 0.9 6.1 0.00 0.00 0.00 80 1021.8
20260506185810 59 252 2.6 8.7 0.00 0.00 0.00 80 1021.8
20260506185311 60 246 3.5 8.7 0.00 0.00 0.00 81 1021.8
20260506184810 60 257 2.6 7.0 0.00 0.00 0.00 80 1021.7
20260506184640 60 263 1.7 7.0 0.00 0.00 0.00 77 1021.6
20260506183810 60 255 1.7 5.2 0.00 0.00 0.00 80 1021.6
20260506183313 60 259 1.7 7.8 0.00 0.00 0.00 79 1021.4
20260506182810 61 261 5.2 7.8 0.00 0.00 0.00 79 1021.5
20260506182630 60 224 0.0 3.5 0.00 0.00 0.00 79 1021.8
20260506181810 60 276 2.6 3.5 0.00 0.00 0.00 82 1021.7
20260506181313 60 267 1.7 3.5 0.00 0.00 0.00 81 1021.5
20260506180810 60 18 1.7 3.5 0.00 0.00 0.00 81 1021.5
20260506180310 60 17 1.7 3.5 0.00 0.00 0.00 82 1021.5
20260506180146 60 17 1.7 3.5 0.00 0.00 0.00 82 1021.4
20260506175310 59 17 0.9 5.2 0.00 0.00 0.00 83 1021.5
20260506174813 59 17 1.7 5.2 0.00 0.00 0.00 81 1021.5
20260506174310 59 8 1.7 5.2 0.00 0.00 0.00 82 1021.4
20260506173810 59 353 0.9 7.0 0.00 0.00 0.00 82 1021.2
20260506173310 59 354 0.9 7.0 0.00 0.00 0.00 81 1021.4
20260506172810 59 334 1.7 2.6 0.00 0.00 0.00 83 1021.4
20260506172310 58 314 0.0 2.6 0.00 0.00 0.00 81 1021.2
20260506171810 58 283 0.9 1.7 0.00 0.00 0.00 83 1021.3
20260506171311 58 282 0.0 2.6 0.00 0.00 0.00 83 1021.2
20260506170809 58 266 0.0 2.6 0.00 0.00 0.00 82 1021.0
20260506170332 58 241 0.0 0.9 0.00 0.00 0.00 82 1021.2
20260506165810 58 301 0.0 0.9 0.00 0.00 0.00 83 1021.3
20260506165310 58 301 0.9 2.6 0.00 0.00 0.00 83 1021.3
20260506164811 58 301 0.9 2.6 0.00 0.00 0.00 83 1021.4
20260506164310 58 301 1.7 2.6 0.00 0.00 0.00 84 1021.1
20260506163810 58 249 0.0 2.6 0.00 0.00 0.00 84 1021.3
20260506163327 58 269 0.9 2.6 0.00 0.00 0.00 84 1021.2
20260506162812 58 263 1.7 2.6 0.00 0.00 0.00 84 1021.2
20260506162311 57 225 1.7 1.7 0.00 0.00 0.00 86 1021.1
20260506161810 57 224 0.0 1.7 0.00 0.00 0.00 83 1021.0
20260506161309 57 224 0.0 1.7 0.00 0.00 0.00 85 1021.2
20260506160815 57 224 0.0 2.6 0.00 0.00 0.00 84 1021.1
20260506160355 57 224 0.0 3.5 0.00 0.00 0.00 83 1020.7
20260506160334 57 224 1.7 2.6 0.00 0.00 0.00 84 1020.6
20260506155620 57 224 0.9 5.2 0.00 0.00 0.00 85 1020.9
20260506154811 57 212 1.7 5.2 0.00 0.00 0.00 84 1020.8
20260506154313 57 184 4.3 5.2 0.00 0.00 0.00 85 1020.7
20260506153810 56 189 0.0 3.5 0.00 0.00 0.00 87 1020.5
20260506153311 56 164 1.7 5.2 0.00 0.00 0.00 87 1020.4
20260506152810 55 138 2.6 6.1 0.00 0.00 0.00 88 1020.5
20260506152618 55 179 0.9 6.1 0.00 0.00 0.00 88 1020.7
20260506151810 55 141 1.7 2.6 0.00 0.00 0.00 90 1020.7
20260506151310 55 241 0.0 0.9 0.00 0.00 0.00 89 1021.3
20260506151124 55 241 0.0 1.7 0.00 0.00 0.00 91 1021.0
20260506150617 54 241 0.9 1.7 0.00 0.00 0.00 91 1021.0
20260506145811 54 242 0.9 3.5 0.00 0.00 0.00 90 1021.0
20260506145619 54 222 0.0 3.5 0.00 0.00 0.00 89 1021.1
20260506144810 54 233 0.9 5.2 0.00 0.00 0.00 90 1020.8
20260506144311 54 219 0.9 5.2 0.00 0.00 0.00 90 1020.8
20260506143810 54 239 0.9 5.2 0.00 0.00 0.00 90 1020.9
20260506143631 54 213 1.7 2.6 0.00 0.00 0.00 90 1020.8
20260506142810 54 289 0.0 2.6 0.00 0.00 0.00 90 1020.8
20260506142309 54 303 0.9 1.7 0.00 0.00 0.00 90 1020.8
20260506141811 54 201 0.0 1.7 0.00 0.00 0.00 90 1020.6
20260506141311 54 270 0.0 2.6 0.00 0.00 0.00 90 1020.4
20260506140809 54 245 0.9 2.6 0.00 0.00 0.00 90 1020.6
20260506140310 54 221 0.0 1.7 0.00 0.00 0.00 90 1020.3
20260506135810 54 221 0.0 1.7 0.00 0.00 0.00 91 1020.6
20260506135310 54 221 0.0 2.6 0.00 0.00 0.00 91 1020.3
20260506134810 54 259 0.9 2.6 0.00 0.00 0.00 91 1020.4
20260506134312 54 232 0.0 0.9 0.00 0.00 0.00 91 1020.3
20260506133812 54 232 0.0 0.9 0.00 0.00 0.00 91 1020.0
20260506133617 54 231 0.0 0.9 0.00 0.00 0.00 92 1020.3
20260506132809 54 232 0.0 0.9 0.00 0.00 0.00 92 1020.2
20260506132310 54 232 0.0 1.7 0.00 0.00 0.00 92 1020.0
20260506132125 54 232 0.0 1.7 0.00 0.00 0.00 91 1019.9
20260506131310 54 232 0.0 1.7 0.00 0.00 0.00 91 1019.9
20260506130812 54 231 0.9 1.7 0.00 0.00 0.00 91 1019.6
20260506130313 54 247 0.0 0.9 0.00 0.00 0.00 92 1019.6
20260506130223 54 286 0.0 0.0 0.00 0.00 0.00 92 1019.7
20260506125311 54 286 0.0 0.0 0.00 0.00 0.00 92 1019.6
20260506125117 54 286 0.0 0.0 0.00 0.00 0.00 91 1019.7
20260506124310 54 286 0.0 0.9 0.00 0.00 0.00 91 1019.6
20260506123810 54 287 0.9 0.9 0.00 0.00 0.00 91 1019.4
20260506123311 54 287 0.0 0.0 0.00 0.00 0.00 91 1019.8
20260506122835 54 286 0.0 0.9 0.00 0.00 0.00 90 1019.6
20260506122310 54 287 0.0 0.9 0.00 0.00 0.00 90 1019.5
20260506121811 54 286 0.0 0.0 0.00 0.00 0.00 90 1019.5
20260506121418 54 286 0.0 0.9 0.00 0.00 0.00 90 1019.5
20260506120310 54 287 0.0 0.9 0.00 0.00 0.00 91 1019.6
20260506115819 55 287 0.0 0.0 0.00 0.00 0.00 90 1019.5
20260506115310 54 287 0.0 0.9 0.00 0.00 0.00 91 1019.7
20260506114810 54 287 0.0 0.9 0.00 0.00 0.00 90 1019.6
20260506114310 54 287 0.0 0.0 0.00 0.00 0.00 90 1019.3
20260506113810 55 287 0.0 0.0 0.00 0.00 0.00 90 1019.5
20260506113310 55 287 0.0 0.0 0.00 0.00 0.00 90 1019.3
20260506112810 55 287 0.0 0.9 0.00 0.00 0.00 90 1019.1
20260506112310 55 287 0.0 1.7 0.00 0.00 0.00 89 1019.1
20260506111811 55 287 0.0 1.7 0.00 0.00 0.00 90 1019.1
20260506111310 55 287 0.9 2.6 0.00 0.00 0.00 89 1019.1
20260506110810 55 287 1.7 2.6 0.00 0.00 0.00 90 1019.1
20260506110311 55 286 1.7 1.7 0.00 0.00 0.00 89 1019.1
20260506110159 55 254 0.0 1.7 0.00 0.00 0.00 89 1019.0
20260506105309 55 254 0.0 1.7 0.00 0.00 0.00 89 1018.8
20260506105124 55 254 0.0 1.7 0.00 0.00 0.00 89 1019.1
20260506104309 55 254 0.9 2.6 0.00 0.00 0.00 89 1018.8
20260506103810 55 254 0.9 2.6 0.00 0.00 0.00 89 1018.8
20260506103309 55 227 0.9 2.6 0.00 0.00 0.00 90 1018.5
20260506102811 55 226 0.9 0.9 0.00 0.00 0.00 90 1018.8
20260506102312 55 226 0.0 0.0 0.00 0.00 0.00 90 1018.6
20260506101811 55 226 0.0 0.0 0.00 0.00 0.00 90 1018.6
20260506101310 55 226 0.0 0.0 0.00 0.00 0.00 90 1018.6
20260506100810 55 226 0.0 0.0 0.00 0.00 0.00 90 1018.5
20260506100622 55 226 0.0 0.9 0.00 0.00 0.00 90 1018.5
20260506095934 55 226 0.0 0.9 0.00 0.00 0.00 90 1018.3